Weather in Verkhoshizhemje

Russia / Kirov Oblast     58°00′41″N   49°06′08″E
temp.,
°C
wind,
m/s
gust,
m/s
humid.,
%
clouds,
%
prec.,
mm/h
press.,
hPa
HPBL,
m
11 april, sun
sun1100:00+1nw0097100 0.0 102715
03:00+1nnw1295100 0.1 102774
06:00+1nnw129291 0.0 1028154
09:00+4wnw127626 0.0 1029368
12:00+7w24605 0.0 1030661
15:00+8wsw246198 0.0 1031744
18:00+4ssw1191100 0.0 103319
21:00+1s1196100 0.0 103410
12 april, mon
mon1200:000s1197100 0.0 103624
03:00+1w0094100 0.0 103712
06:00+3ne129193 0.0 103860
09:00+8ese227615 0.0 1038394
12:00+11se226342 0.0 10381071
15:00+11se226345 0.0 10371041
18:00+8se2482100 0.0 103781
21:00+5se2792100 0.0 1036142
13 april, tue
tue1300:00+5se3993100 0.0 1035220
03:00+5se3889100 0.0 1034218
06:00+6sse3890100 0.0 1033212
09:00+10s3780100 0.0 1032324
12:00+15s476598 0.0 1030680
15:00+16s4762100 0.0 10281067
18:00+13s397695 0.0 1027248
21:00+10s31189100 0.0 1027272
14 april, wed
wed1400:00+8s3118649 0.0 1027243
03:00+6s3108556 0.0 1026180
06:00+6s398291 0.0 1025212
09:00+12ssw48615 0.0 1024406
12:00+17ssw57465 0.0 1023865
15:00+18sw594497 0.0 10221390
18:00+15sw4105474 0.0 1020372
21:00+11ssw31272100 0.0 1020231
15 april, thu
thu1500:00+9ssw31178100 0.0 1019211
03:00+8ssw288393 0.0 1018145
06:00+8ssw2683100 0.0 1018155
09:00+12sw3564100 0.0 1016413
12:00+15wsw3554100 0.0 10151016
15:00+11n5573100 0.0 1014428
18:00+4n4891100 1.9 1015345
21:00+3nne4794100 4.8 1015424